This is the latest recevied weather packets stored in our database for station/object K5SVV. If no packets are shown the sender has not sent any weather packets the latest 10 day(s).
| Time | Temp. | Humidity | Pressure | Rain* | Wind** | Luminosity | Snow |
|---|---|---|---|---|---|---|---|
| 1788032612 | 37.78° C | 36% | 1015.6 hPa | 0 mm | - | 682 W/m² | - |
| 1788032307 | 38.33° C | 36% | 1015.6 hPa | 0 mm | - | 692 W/m² | - |
| 1788032003 | 38.33° C | 35% | 1015.6 hPa | 0 mm | - | 727 W/m² | - |
| 1788031698 | 38.33° C | 36% | 1015.7 hPa | 0 mm | - | 732 W/m² | - |
| 1788031396 | 38.33° C | 35% | 1015.8 hPa | 0 mm | - | 451 W/m² | - |
| 1788031092 | 37.22° C | 36% | 1015.8 hPa | 0 mm | - | 769 W/m² | - |
| 1788030786 | 37.22° C | 36% | 1016.3 hPa | 0 mm | - | 737 W/m² | - |
| 1788030485 | 37.78° C | 36% | 1016 hPa | 0 mm | - | 159 W/m² | - |
| 1788030180 | 37.22° C | 39% | 1016.2 hPa | 0 mm | - | 756 W/m² | - |
| 1788029876 | 37.22° C | 38% | 1016 hPa | 0 mm | - | 741 W/m² | - |
| 1788029569 | 36.67° C | 40% | 1015.9 hPa | 0 mm | - | 783 W/m² | - |
| 1788029264 | 36.67° C | 40% | 1016.1 hPa | 0 mm | - | 203 W/m² | - |
| 1788028963 | 36.67° C | 40% | 1016.3 hPa | 0 mm | - | 761 W/m² | - |
| 1788028658 | 37.78° C | 40% | 1016.1 hPa | 0 mm | - | 754 W/m² | - |
| 1788028353 | 37.78° C | 39% | 1016.2 hPa | 0 mm | - | 746 W/m² | - |
| 1788028048 | 37.22° C | 40% | 1016.4 hPa | 0 mm | - | 744 W/m² | - |
| 1788027744 | 36.67° C | 39% | 1016.3 hPa | 0 mm | - | 771 W/m² | - |
| 1788027443 | 36.11° C | 41% | 1016.6 hPa | 0 mm | - | 762 W/m² | - |
| 1788027138 | 36.11° C | 39% | 1016.7 hPa | 0 mm | - | 764 W/m² | - |
| 1788026837 | 36.11° C | 42% | 1016.9 hPa | 0 mm | - | 747 W/m² | - |
| 1788026533 | 36.11° C | 42% | 1016.9 hPa | 0 mm | - | 738 W/m² | - |
| 1788026232 | 36.67° C | 40% | 1016.7 hPa | 0 mm | - | 750 W/m² | - |
| 1788025927 | 36.11° C | 42% | 1017.1 hPa | 0 mm | - | 743 W/m² | - |
| 1788025626 | 36.11° C | 42% | 1016.9 hPa | 0 mm | - | 744 W/m² | - |
| 1788025326 | 35.56° C | 45% | 1016.8 hPa | 0 mm | - | 755 W/m² | - |
* Rain latest hour (hover to see other rain measurements)
** Current wind speed in m/s (hover to see current wind gust speed)